ATLAS 5 CENTAUR DEB, 43982

Orbit data source: Space-Track

ATLAS 5 CENTAUR DEB, 43982 is space debris in HEO originally from a launch on Wed, 17 Sep 2014 UTC launched from the Air Force Eastern Test Range (AFETR). Debris objects in space refer to the collection of defunct objects orbiting the Earth. Examples of debris include non-operational satellites, rocket bodies, and fragments generated from explosions, collisions, or faulty payload assembly.

Loading next visibility...
Identifier
43982, 2014-055AM
Orbit
HEO
Country
Flag of USUS
Related business
Flag of USUnited Launch Alliance/Lockheed Martin (US)
Manufacturer
Unknown
Mission
Spacecraft
Bus & Motor
Unknown
Mass
Unknown
Launch date (UTC)
2014-09-17 (11 years ago)
Launch vehicle
Unknown
Launch site
Air Force Eastern Test Range (AFETR)
Object type
Payload
Rocket body
Debris
Shape & HBR
Unknown shape, 1.1 m
Radar Cross Section
RCS unknown

Expand to show TLE details & history
Last TLE update: 18 hours ago

TLE from 18 hours ago
0 ATLAS 5 CENTAUR DEB
1 43982U 14055AM  25342.26688391 -.00000047  00000-0  00000-0 0  9992
2 43982  19.3334 209.1281 4723689  52.5441 341.8825  1.75472365 46465
Epoch: 2025-12-08T06:24Z
TLE epoch observation values (Epoch: 2025-12-08T06:24:18.769Z)
Latitude
-0.00002°
Longitude
35.84697°
Altitude
11,108.757 km
Speed
5.645 km/s
True Right ascension
13h 56m 46s
True Declination
0° 00' 00"
Sunlit
Object was in daylight at epoch
Visualization orbit readout
Latitude
Unknown
Longitude
Unknown
Altitude
Unknown
Speed
Unknown
Apparent Right ascension
Unknown
Apparent Declination
Unknown
Sunlit
N/A
Visualization observer readout
Local Sidereal Time
23:00:19
Azimuth
Unknown
Elevation
Unknown
Doppler factor
Unknown
Orbital elements
Apogee altitude
36,375.586 km
Perigee altitude
8,942.884 km
Semi-major axis
29,037.372 km
Eccentricity
0.47237
Inclination
19.3334°
RAAN
209.1281°
Arg. of periapsis
52.5441°
True anomaly
307.68949°
Mean anomaly
341.8825°
Eccentric anomaly
327.23534°
Mean motion
0.43864 °/min
Orbital period
820.72 mins
BSTAR
0
Loading maneuver chart data...
Computing Atmospheric mass density...

Documentation

Showing up to 5 results
|